Location: Alsip
(41.6689°N, 87.7387°W)
Time: 09:12:00
(UTC+00:00)

GEOS 3 Rocket - Pass Details

Date: 23 October 2020
Orbit: 770 x 850 km, 115.0° (Epoch: 25 November)

Event Time Altitude Azimuth Distance (km) Brightness Sun altitude
Exits shadow 02:09:15 17° 228° (SW) 1,967 5.8 -36.0°
Maximum altitude 02:10:35 19° 247° (WSW) 1,892 5.9 -36.3°
Drops below altitude 10° 02:14:14 10° 291° (WNW) 2,451 6.9 -36.9°
Sets 02:17:19 0° 309° (NW) 3,402 7.7 -37.5°
